Washington, IA

1:42 AM CDT on September 27, 2016 (GMT -0500)
Washington Municipal

Weather History for KAWG - January, 2013

Change the Weather History Date:

Friday, January 18, 2013

  Actual Average Record
Temperature  
Mean Temperature 37 °F -  
Max Temperature 53 °F 28 °F 53 °F (2013)
Min Temperature 21 °F 14 °F -4 °F (1997)
Degree Days  
Heating Degree Days 28    
Moisture  
Dew Point 26 °F    
Average Humidity 64    
Maximum Humidity 86    
Minimum Humidity 41    
Precipitation  
Precipitation 0.00 in - - ()
Sea Level Pressure  
Sea Level Pressure 30.11 in    
Wind  
Wind Speed 14 mph (SSW)    
Max Wind Speed 33 mph    
Max Gust Speed 40 mph    
Visibility 10 miles    
Events      
Averages and records for this station are not official NWS values.
T = Trace of Precipitation, MM = Missing Value Source: NWS Daily Summary

Daily Weather History Graph

Daily Weather History Graph

Search for Another Location

Airport or City:

Trip Planner

Search our weather history database for the weather conditions in past years. The results will help you decide how hot, cold, wet, or windy it might be!

Date:

Astronomy

Jan. 18, 2013 Rise Set
Actual Time 7:28 AM CST 5:06 PM CST
Civil Twilight 6:58 AM CST 5:36 PM CST
Nautical Twilight 6:24 AM CST 6:10 PM CST
Astronomical Twilight 5:51 AM CST 6:43 PM CST
Moon 11:02 AM CST (1/18) 12:01 AM CST (1/18)
Length of Visible Light 10h 38m
Length of Day
9h 37m
Waxing Crescent, 47% of the Moon is Illuminated
Jan 18
Waxing Crescent
Jan 18
First Quarter
Jan 26
Full
Feb 3
Last Quarter
Feb 10
New

Hourly Weather History & Observations

Time (CST) Temp. Windchill Dew Point Humidity Pressure Visibility Wind Dir Wind Speed Gust Speed Precip Events Conditions
12:15 AM 21.2 °F 14.9 °F 15.8 °F 80% 30.40 in 10.0 mi South 4.6 mph - N/A   Clear
12:35 AM 21.2 °F 13.6 °F 17.6 °F 86% 30.40 in 10.0 mi South 5.8 mph - N/A   Clear
12:55 AM 21.2 °F 13.6 °F 17.6 °F 86% 30.39 in 10.0 mi SSE 5.8 mph - N/A   Clear
1:15 AM 23.0 °F 15.8 °F 17.6 °F 80% 30.39 in 10.0 mi South 5.8 mph - N/A   Clear
1:35 AM 24.8 °F 16.9 °F 17.6 °F 74% 30.38 in 10.0 mi SSE 6.9 mph - N/A   Clear
1:55 AM 24.8 °F 17.9 °F 17.6 °F 74% 30.38 in 10.0 mi South 5.8 mph - N/A   Clear
2:15 AM 24.8 °F 15.3 °F 17.6 °F 74% 30.37 in 10.0 mi South 9.2 mph - N/A   Clear
2:35 AM 24.8 °F 15.3 °F 17.6 °F 74% 30.37 in 10.0 mi South 9.2 mph - N/A   Clear
2:55 AM 24.8 °F 15.3 °F 19.4 °F 80% 30.36 in 10.0 mi South 9.2 mph - N/A   Clear
3:15 AM 24.8 °F 14.6 °F 19.4 °F 80% 30.35 in 10.0 mi South 10.4 mph - N/A   Clear
3:35 AM 24.8 °F 15.3 °F 19.4 °F 80% 30.34 in 10.0 mi South 9.2 mph - N/A   Clear
3:55 AM 24.8 °F 14.6 °F 19.4 °F 80% 30.33 in 10.0 mi South 10.4 mph - N/A   Clear
4:15 AM 24.8 °F 15.3 °F 19.4 °F 80% 30.33 in 10.0 mi South 9.2 mph - N/A   Clear
4:35 AM 24.8 °F 14.6 °F 19.4 °F 80% 30.32 in 10.0 mi South 10.4 mph - N/A   Clear
4:55 AM 24.8 °F 15.3 °F 19.4 °F 80% 30.31 in 10.0 mi South 9.2 mph - N/A   Clear
5:15 AM 26.6 °F 17.5 °F 19.4 °F 74% 30.30 in 10.0 mi South 9.2 mph - N/A   Clear
5:35 AM 26.6 °F 16.2 °F 21.2 °F 80% 30.28 in 10.0 mi South 11.5 mph - N/A   Clear
5:55 AM 26.6 °F 15.7 °F 21.2 °F 80% 30.27 in 10.0 mi South 12.7 mph - N/A   Clear
6:15 AM 26.6 °F 14.7 °F 21.2 °F 80% 30.25 in 10.0 mi South 15.0 mph - N/A   Clear
6:35 AM 28.4 °F 16.2 °F 21.2 °F 74% 30.24 in 10.0 mi South 17.3 mph - N/A   Clear
6:55 AM 28.4 °F 15.8 °F 23.0 °F 80% 30.23 in 10.0 mi South 18.4 mph - N/A   Clear
7:15 AM 30.2 °F 17.4 °F 23.0 °F 75% 30.22 in 10.0 mi South 20.7 mph - N/A   Clear
7:35 AM 30.2 °F 18.1 °F 23.0 °F 75% 30.22 in 10.0 mi South 18.4 mph 26.5 mph N/A   Clear
7:55 AM 30.2 °F 17.1 °F 24.8 °F 80% 30.21 in 10.0 mi SSW 21.9 mph 27.6 mph N/A   Clear
8:15 AM 32.0 °F 19.2 °F 24.8 °F 75% 30.20 in 10.0 mi South 23.0 mph 26.5 mph N/A   Clear
8:35 AM 33.8 °F 21.9 °F 24.8 °F 70% 30.20 in 10.0 mi South 21.9 mph 27.6 mph N/A   Clear
8:55 AM 33.8 °F 21.3 °F 24.8 °F 70% 30.20 in 10.0 mi SSW 24.2 mph 31.1 mph N/A   Clear
9:15 AM 35.6 °F 24.2 °F 24.8 °F 65% 30.20 in 10.0 mi SSW 21.9 mph 28.8 mph N/A   Clear
9:35 AM 35.6 °F 24.2 °F 24.8 °F 65% 30.19 in 10.0 mi SSW 21.9 mph 28.8 mph N/A   Clear
9:55 AM 37.4 °F 27.2 °F 26.6 °F 65% 30.18 in 10.0 mi SSW 19.6 mph - N/A   Clear
10:15 AM 39.2 °F 29.6 °F 26.6 °F 61% 30.17 in 10.0 mi SSW 19.6 mph 27.6 mph N/A   Clear
10:35 AM 42.8 °F 33.3 °F 28.4 °F 57% 30.15 in 10.0 mi SSW 24.2 mph 29.9 mph N/A   Clear
10:55 AM 42.8 °F 33.5 °F 28.4 °F 57% 30.13 in 10.0 mi SSW 23.0 mph 33.4 mph N/A   Clear
11:15 AM 44.6 °F 35.5 °F 28.4 °F 53% 30.12 in 10.0 mi SSW 25.3 mph 34.5 mph N/A   Clear
11:35 AM 46.4 °F 37.5 °F 28.4 °F 50% 30.09 in 10.0 mi SSW 27.6 mph 35.7 mph N/A   Clear
11:55 AM 46.4 °F 36.7 °F 28.4 °F 50% 30.06 in 10.0 mi SSW 33.4 mph 39.1 mph N/A   Clear
12:15 PM 46.4 °F 37.2 °F 28.4 °F 50% 30.04 in 10.0 mi SSW 29.9 mph 40.3 mph N/A   Clear
12:35 PM 48.2 °F - 30.2 °F 50% 30.02 in 10.0 mi SSW 25.3 mph 39.1 mph N/A   Clear
12:55 PM 48.2 °F - 30.2 °F 50% 29.99 in 10.0 mi SSW 28.8 mph 39.1 mph N/A   Clear
1:15 PM 48.2 °F - 30.2 °F 50% 29.98 in 10.0 mi SSW 31.1 mph 39.1 mph N/A   Clear
1:35 PM 50.0 °F - 28.4 °F 43% 29.97 in 10.0 mi SSW 28.8 mph 33.4 mph N/A   Clear
1:55 PM 51.8 °F - 30.2 °F 44% 29.97 in 10.0 mi SW 23.0 mph 33.4 mph N/A   Clear
2:15 PM 51.8 °F - 30.2 °F 44% 29.96 in 10.0 mi SW 26.5 mph 33.4 mph N/A   Clear
2:35 PM 51.8 °F - 30.2 °F 44% 29.95 in 10.0 mi SW 26.5 mph 35.7 mph N/A   Clear
2:55 PM 53.6 °F - 30.2 °F 41% 29.93 in 10.0 mi SW 26.5 mph 36.8 mph N/A   Clear
3:15 PM 51.8 °F - 30.2 °F 44% 29.93 in 10.0 mi SW 23.0 mph 28.8 mph N/A   Clear
3:35 PM 51.8 °F - 30.2 °F 44% 29.93 in 10.0 mi SW 21.9 mph 32.2 mph N/A   Clear
3:55 PM 51.8 °F - 28.4 °F 41% 29.94 in 10.0 mi SW 23.0 mph 31.1 mph N/A   Clear
4:15 PM 51.8 °F - 30.2 °F 44% 29.93 in 10.0 mi SW 23.0 mph 32.2 mph N/A   Clear
4:35 PM 50.0 °F - 30.2 °F 47% 29.93 in 10.0 mi SW 19.6 mph 28.8 mph N/A   Clear
4:55 PM 48.2 °F - 30.2 °F 50% 29.93 in 10.0 mi SW 18.4 mph 26.5 mph N/A   Clear
5:15 PM 48.2 °F - 30.2 °F 50% 29.95 in 10.0 mi SW 13.8 mph 19.6 mph N/A   Clear
5:35 PM 48.2 °F - 30.2 °F 50% 29.95 in 10.0 mi SW 13.8 mph 20.7 mph N/A   Clear
5:55 PM 46.4 °F 40.1 °F 30.2 °F 53% 29.95 in 10.0 mi SSW 15.0 mph - N/A   Clear
6:15 PM 46.4 °F 40.4 °F 30.2 °F 53% 29.95 in 10.0 mi SSW 13.8 mph - N/A   Clear
6:35 PM 46.4 °F 39.5 °F 30.2 °F 53% 29.95 in 10.0 mi SSW 17.3 mph - N/A   Clear
6:55 PM 44.6 °F 37.4 °F 30.2 °F 57% 29.95 in 10.0 mi SSW 16.1 mph 19.6 mph N/A   Clear
7:15 PM 44.6 °F 37.4 °F 30.2 °F 57% 29.95 in 10.0 mi SSW 16.1 mph - N/A   Clear
7:35 PM 44.6 °F 37.4 °F 30.2 °F 57% 29.95 in 10.0 mi SSW 16.1 mph - N/A   Clear
7:55 PM 42.8 °F 35.4 °F 30.2 °F 61% 29.94 in 10.0 mi SSW 15.0 mph - N/A   Clear
8:15 PM 42.8 °F 35.4 °F 30.2 °F 61% 29.94 in 10.0 mi SSW 15.0 mph - N/A   Clear
8:35 PM 42.8 °F 35.8 °F 30.2 °F 61% 29.94 in 10.0 mi SSW 13.8 mph - N/A   Clear
8:55 PM 42.8 °F 35.4 °F 30.2 °F 61% 29.94 in 10.0 mi SW 15.0 mph - N/A   Clear
9:15 PM 42.8 °F 35.8 °F 30.2 °F 61% 29.94 in 10.0 mi SW 13.8 mph - N/A   Clear
9:35 PM 42.8 °F 36.2 °F 30.2 °F 61% 29.94 in 10.0 mi SW 12.7 mph - N/A   Clear
9:55 PM 42.8 °F 35.8 °F 30.2 °F 61% 29.94 in 10.0 mi SW 13.8 mph - N/A   Clear
10:15 PM 41.0 °F 34.3 °F 30.2 °F 65% 29.93 in 10.0 mi SW 11.5 mph - N/A   Clear
10:35 PM 39.2 °F 31.6 °F 30.2 °F 70% 29.93 in 10.0 mi SW 12.7 mph - N/A   Clear
10:55 PM 39.2 °F 32.0 °F 30.2 °F 70% 29.93 in 10.0 mi SW 11.5 mph - N/A   Clear
11:15 PM 39.2 °F 32.5 °F 30.2 °F 70% 29.93 in 10.0 mi SW 10.4 mph - N/A   Clear
11:35 PM 39.2 °F 33.0 °F 28.4 °F 65% 29.93 in 10.0 mi SW 9.2 mph - N/A   Clear
11:55 PM 37.4 °F 30.3 °F 30.2 °F 75% 29.93 in 10.0 mi SSW 10.4 mph - N/A   Clear